Regional Weather Roundup
Issued by NWS

Home | Current Version | Previous Version | Graphics & Text | Print | Product List | Glossary On
Versions: 1 2 3 4 5 6 7 8 9 10 11 12 13 14 15 16 17 18 19 20 21 22 23 24 25 26 27 28 29 30 31 32 33 34 35 36 37 38 39 40 41 42 43 44 45 46 47 48 49 50
000
ASUS45 KBOI 250810
RWRID
WEATHER ROUNDUP FOR IDAHO
NATIONAL WEATHER SERVICE BOISE ID
100 AM MST TUE NOV 25 2014

NOTE: "FAIR" INDICATES FEW OR NO CLOUDS BELOW 12000 FEET
WITH NO SIGNIFICANT WEATHER AND/OR OBSTRUCTIONS TO VISIBILITY

IDZ012-014-250900-
SOUTHWEST IDAHO


CITY           SKY/WX    TMP DP  RH WIND       PRES   REMARKS
BOISE          LGT RAIN  40  32  73 E10       30.31F WCI  33
CALDWELL       NOT AVBL
MOUNTAIN HOME  CLOUDY    39  37  93 VRB3      30.33F
$$

IDZ016-017-250900-
SOUTHCENTRAL IDAHO


CITY           SKY/WX    TMP DP  RH WIND       PRES   REMARKS
BURLEY         CLOUDY    38  22  52 S16       30.30F WCI  29
JEROME         CLOUDY    35  25  66 S7        30.32F WCI  29
TWIN FALLS     CLOUDY    42  22  44 S13       30.32S
$$

IDZ019>023-250900-
SOUTHEAST IDAHO


CITY           SKY/WX    TMP DP  RH WIND       PRES   REMARKS
IDAHO FALLS    CLOUDY    34  24  67 SW18      30.24F WCI  23
POCATELLO      CLOUDY    39  22  50 S20G28    30.28F WCI  29
REXBURG        CLOUDY    33  22  63 SW16      30.22F WCI  23
$$

IDZ006-010-011-018-031-032-250900-
CENTRAL IDAHO MOUNTAINS


CITY           SKY/WX    TMP DP  RH WIND       PRES   REMARKS
MCCALL         LGT SNOW  29  28  96 CALM      30.22F VSB 1
HAILEY         CLOUDY    28  19  69 NW5       30.29F WCI  23
STANLEY          N/A     27  22  81 SE6       30.24F WCI  20
SALMON         CLOUDY    34  27  75 S12G20    30.18F WCI  25
CHALLIS        LGT SNOW  31  28  89 SE9       30.20F FOG     WCI  23
$$

IDZ002-004-006-007-026-250900-
NORTHERN IDAHO


CITY           SKY/WX    TMP DP  RH WIND       PRES   REMARKS
LEWISTON       LGT RAIN  46  37  71 S16G25    30.08F
LOWELL           N/A     33  32  96 N6        30.21F WCI  28
COEUR D`ALENE  CLOUDY    37  36  93 S10       30.02S WCI  30
MULLAN PASS    SNOW      27  25  92 W9G18     29.94F VSB 1/2 WCI  18
$$



USA.gov is the U.S. government's official web portal to all federal, state and local government web resources and services.